Date,TemperatureHighF,TemperatureAvgF,TemperatureLowF,DewpointHighF,DewpointAvgF,DewpointLowF,HumidityHigh,HumidityAvg,HumidityLow,PressureMaxIn,PressureMinIn,WindSpeedMaxMPH,WindSpeedAvgMPH,GustSpeedMaxMPH,PrecipitationSumIn
2013-1-1,61,54,45,-100,-100,-100,0,0,100,0.00,40.00,0,-999,0,0.00
2013-1-2,45,42,40,-100,-100,-100,0,0,100,0.00,40.00,0,-999,0,0.00
2013-1-3,51,44,38,-100,-100,-100,0,0,100,0.00,40.00,0,-999,0,0.00
2013-1-4,46,43,40,-100,-100,-100,0,0,100,0.00,40.00,0,-999,0,0.00
2013-1-5,43,42,41,-100,-100,-100,0,0,100,0.00,40.00,0,-999,0,0.00
2013-1-6,61,48,38,-100,-100,-100,0,0,100,0.00,40.00,0,-999,0,0.00
2013-1-7,58,46,34,-100,-100,-100,0,0,100,0.00,40.00,0,-999,0,0.00
2013-1-8,64,55,48,-100,-100,-100,0,0,100,0.00,40.00,0,-999,0,0.00
2013-1-9,71,64,61,-100,-100,-100,0,0,100,0.00,40.00,0,-999,0,0.00
2013-1-10,65,63,59,-100,-100,-100,0,0,100,0.00,40.00,0,-999,0,0.00
2013-1-11,74,63,48,-100,-100,-100,0,0,100,0.00,40.00,0,-999,0,0.00
2013-1-12,76,74,72,-100,-100,-100,0,0,100,0.00,40.00,0,-999,0,0.00
2013-1-13,73,56,46,-100,-100,-100,0,0,100,0.00,40.00,0,-999,0,0.00
2013-1-14,46,42,39,-100,-100,-100,0,0,100,0.00,40.00,0,-999,0,0.00
2013-1-15,39,37,36,-100,-100,-100,0,0,100,0.00,40.00,0,-999,0,0.00
2013-1-16,43,38,34,-100,-100,-100,0,0,100,0.00,40.00,0,-999,0,0.00
2013-1-17,59,44,32,-100,-100,-100,0,0,100,0.00,40.00,0,-999,0,0.00
2013-1-18,59,44,32,-100,-100,-100,0,0,100,0.00,40.00,0,-999,0,0.00
2013-1-19,62,45,31,-100,-100,-100,0,0,100,0.00,40.00,0,-999,0,0.00
2013-1-20,66,51,36,-100,-100,-100,0,0,100,0.00,40.00,0,-999,0,0.00
2013-1-21,66,53,42,-100,-100,-100,0,0,100,0.00,40.00,0,-999,0,0.00
2013-1-22,70,53,43,-100,-100,-100,0,0,100,0.00,40.00,0,-999,0,0.00
2013-1-23,69,54,45,-100,-100,-100,0,0,100,0.00,40.00,0,-999,0,0.00
2013-1-24,69,61,51,-100,-100,-100,0,0,100,0.00,40.00,0,-999,0,0.00
2013-1-25,74,63,56,-100,-100,-100,0,0,100,0.00,40.00,0,-999,0,0.00
2013-1-26,72,63,55,-100,-100,-100,0,0,100,0.00,40.00,0,-999,0,0.00
2013-1-27,71,61,55,-100,-100,-100,0,0,100,0.00,40.00,0,-999,0,0.00
2013-1-28,72,67,62,-100,-100,-100,0,0,100,0.00,40.00,0,-999,0,0.00
2013-1-29,75,71,67,-100,-100,-100,0,0,100,0.00,40.00,0,-999,0,0.00
2013-1-30,71,53,39,-100,-100,-100,0,0,100,0.00,40.00,0,-999,0,0.00
2013-1-31,63,52,39,-100,-100,-100,0,0,100,0.00,40.00,0,-999,0,0.00
2013-2-1,67,50,41,-100,-100,-100,0,0,100,0.00,40.00,0,-999,0,0.00
2013-2-2,69,52,40,-100,-100,-100,0,0,100,0.00,40.00,0,-999,0,0.00
2013-2-3,67,54,44,-100,-100,-100,0,0,100,0.00,40.00,0,-999,0,0.00
2013-2-4,64,52,42,-100,-100,-100,0,0,100,0.00,40.00,0,-999,0,0.00
2013-2-5,70,62,56,-100,-100,-100,0,0,100,0.00,40.00,0,-999,0,0.00
2013-2-6,65,58,53,-100,-100,-100,0,0,100,0.00,40.00,0,-999,0,0.00
2013-2-7,71,63,56,-100,-100,-100,0,0,100,0.00,40.00,0,-999,0,0.00
2013-2-8,70,63,51,-100,-100,-100,0,0,100,0.00,40.00,0,-999,0,0.00
2013-2-9,66,54,47,-100,-100,-100,0,0,100,0.00,40.00,0,-999,0,0.00
2013-2-10,73,65,61,-100,-100,-100,0,0,100,0.00,40.00,0,-999,0,0.00
2013-2-11,62,55,51,-100,-100,-100,0,0,100,0.00,40.00,0,-999,0,0.00
2013-2-12,63,57,53,-100,-100,-100,0,0,100,0.00,40.00,0,-999,0,0.00
2013-2-13,59,52,45,-100,-100,-100,0,0,100,0.00,40.00,0,-999,0,0.00
2013-2-14,66,52,37,-100,-100,-100,0,0,100,0.00,40.00,0,-999,0,0.00
2013-2-15,65,48,39,-100,-100,-100,0,0,100,0.00,40.00,0,-999,0,0.00
2013-2-16,54,46,36,-100,-100,-100,0,0,100,0.00,40.00,0,-999,0,0.00
2013-2-17,69,51,32,-100,-100,-100,0,0,100,0.00,40.00,0,-999,0,0.00
2013-2-18,70,62,47,-100,-100,-100,0,0,100,0.00,40.00,0,-999,0,0.00
2013-2-19,65,54,47,-100,-100,-100,0,0,100,0.00,40.00,0,-999,0,0.00
2013-2-20,58,53,48,-100,-100,-100,0,0,100,0.00,40.00,0,-999,0,0.00
2013-2-21,70,62,54,-100,-100,-100,0,0,100,0.00,40.00,0,-999,0,0.00
2013-2-22,62,59,54,-100,-100,-100,0,0,100,0.00,40.00,0,-999,0,0.00
2013-2-23,67,57,50,-100,-100,-100,0,0,100,0.00,40.00,0,-999,0,0.00
2013-2-24,69,57,47,-100,-100,-100,0,0,100,0.00,40.00,0,-999,0,0.00
2013-2-25,71,64,54,-100,-100,-100,0,0,100,0.00,40.00,0,-999,0,0.00
2013-2-26,62,52,43,-100,-100,-100,0,0,100,0.00,40.00,0,-999,0,0.00
2013-2-27,71,49,37,-100,-100,-100,0,0,100,0.00,40.00,0,-999,0,0.00
2013-2-28,51,43,37,-100,-100,-100,0,0,100,0.00,40.00,0,-999,0,0.00
2013-3-1,57,45,37,-100,-100,-100,0,0,100,0.00,40.00,0,-999,0,0.00
2013-3-2,46,38,32,-100,-100,-100,0,0,100,0.00,40.00,0,-999,0,0.00
2013-3-3,63,43,27,-100,-100,-100,0,0,100,0.00,40.00,0,-999,0,0.00
2013-3-4,69,54,39,-100,-100,-100,0,0,100,0.00,40.00,0,-999,0,0.00
2013-3-5,63,59,51,-100,-100,-100,0,0,100,0.00,40.00,0,-999,0,0.00
2013-3-6,61,46,32,-100,-100,-100,0,0,100,0.00,40.00,0,-999,0,0.00
2013-3-7,62,48,35,-100,-100,-100,0,0,100,0.00,40.00,0,-999,0,0.00
2013-3-8,69,53,37,-100,-100,-100,0,0,100,0.00,40.00,0,-999,0,0.00
2013-3-9,69,56,49,-100,-100,-100,0,0,100,0.00,40.00,0,-999,0,0.00
2013-3-10,66,58,54,-100,-100,-100,0,0,100,0.00,40.00,0,-999,0,0.00
2013-3-11,54,47,37,-100,-100,-100,0,0,100,0.00,40.00,0,-999,0,0.00
2013-3-12,65,47,32,-100,-100,-100,0,0,100,0.00,40.00,0,-999,0,0.00
2013-3-13,65,52,38,-100,-100,-100,0,0,100,0.00,40.00,0,-999,0,0.00
2013-3-14,70,48,35,-100,-100,-100,0,0,100,0.00,40.00,0,-999,0,0.00
2013-3-15,74,59,40,-100,-100,-100,0,0,100,0.00,40.00,0,-999,0,0.00
2013-3-16,74,59,50,-100,-100,-100,0,0,100,0.00,40.00,0,-999,0,0.00
2013-3-17,74,64,53,-100,-100,-100,0,0,100,0.00,40.00,0,-999,0,0.00
2013-3-18,84,73,65,-100,-100,-100,0,0,100,0.00,40.00,0,-999,0,0.00
2013-3-19,73,65,53,-100,-100,-100,0,0,100,0.00,40.00,0,-999,0,0.00
2013-3-20,68,55,47,-100,-100,-100,0,0,100,0.00,40.00,0,-999,0,0.00
2013-3-21,67,54,43,-100,-100,-100,0,0,100,0.00,40.00,0,-999,0,0.00
2013-3-22,79,65,57,-100,-100,-100,0,0,100,0.00,40.00,0,-999,0,0.00
2013-3-23,69,66,65,-100,-100,-100,0,0,100,0.00,40.00,0,-999,0,0.00
2013-3-24,62,55,42,-100,-100,-100,0,0,100,0.00,40.00,0,-999,0,0.00
2013-3-25,55,44,34,-100,-100,-100,0,0,100,0.00,40.00,0,-999,0,0.00
2013-3-26,54,42,32,-100,-100,-100,0,0,100,0.00,40.00,0,-999,0,0.00
2013-3-27,65,45,31,-100,-100,-100,0,0,100,0.00,40.00,0,-999,0,0.00
2013-3-28,69,50,40,-100,-100,-100,0,0,100,0.00,40.00,0,-999,0,0.00
2013-3-29,75,59,47,-100,-100,-100,0,0,100,0.00,40.00,0,-999,0,0.00
2013-3-30,76,64,55,-100,-100,-100,0,0,100,0.00,40.00,0,-999,0,0.00
2013-3-31,76,60,55,-100,-100,-100,0,0,100,0.00,40.00,0,-999,0,0.00
2013-4-1,76,61,54,-100,-100,-100,0,0,100,0.00,40.00,0,-999,0,0.00
2013-4-2,71,59,51,-100,-100,-100,0,0,100,0.00,40.00,0,-999,0,0.00
2013-4-3,64,50,45,-100,-100,-100,0,0,100,0.00,40.00,0,-999,0,0.00
2013-4-4,48,44,36,-100,-100,-100,0,0,100,0.00,40.00,0,-999,0,0.00
2013-4-5,69,54,43,-100,-100,-100,0,0,100,0.00,40.00,0,-999,0,0.00
2013-4-6,69,55,43,-100,-100,-100,0,0,100,0.00,40.00,0,-999,0,0.00
2013-4-7,73,63,54,-100,-100,-100,0,0,100,0.00,40.00,0,-999,0,0.00
2013-4-8,74,67,62,-100,-100,-100,0,0,100,0.00,40.00,0,-999,0,0.00
2013-4-9,72,66,62,-100,-100,-100,0,0,100,0.00,40.00,0,-999,0,0.00
2013-4-10,73,68,62,-100,-100,-100,0,0,100,0.00,40.00,0,-999,0,0.00
2013-4-11,61,48,45,-100,-100,-100,0,0,100,0.00,40.00,0,-999,0,0.00
2013-4-12,70,52,40,-100,-100,-100,0,0,100,0.00,40.00,0,-999,0,0.00
2013-4-13,75,58,46,-100,-100,-100,0,0,100,0.00,40.00,0,-999,0,0.00
2013-4-14,73,60,55,-100,-100,-100,0,0,100,0.00,40.00,0,-999,0,0.00
2013-4-15,85,69,58,-100,-100,-100,0,0,100,0.00,40.00,0,-999,0,0.00
2013-4-16,79,74,71,-100,-100,-100,0,0,100,0.00,40.00,0,-999,0,0.00
2013-4-17,72,69,60,-100,-100,-100,0,0,100,0.00,40.00,0,-999,0,0.00
2013-4-18,72,66,48,-100,-100,-100,0,0,100,0.00,40.00,0,-999,0,0.00
2013-4-19,58,50,43,-100,-100,-100,0,0,100,0.00,40.00,0,-999,0,0.00
2013-4-20,65,48,36,-100,-100,-100,0,0,100,0.00,40.00,0,-999,0,0.00
2013-4-21,67,53,41,-100,-100,-100,0,0,100,0.00,40.00,0,-999,0,0.00
2013-4-22,76,60,44,-100,-100,-100,0,0,100,0.00,40.00,0,-999,0,0.00
2013-4-23,80,68,55,-100,-100,-100,0,0,100,0.00,40.00,0,-999,0,0.00
2013-4-24,69,59,47,-100,-100,-100,0,0,100,0.00,40.00,0,-999,0,0.00
2013-4-25,67,53,42,-100,-100,-100,0,0,100,0.00,40.00,0,-999,0,0.00
2013-4-26,72,64,56,-100,-100,-100,0,0,100,0.00,40.00,0,-999,0,0.00
2013-4-27,71,65,61,-100,-100,-100,0,0,100,0.00,40.00,0,-999,0,0.00
2013-4-28,73,63,47,-100,-100,-100,0,0,100,0.00,40.00,0,-999,0,0.00
2013-4-29,81,57,47,-100,-100,-100,0,0,100,0.00,40.00,0,-999,0,0.00
2013-4-30,75,65,58,-100,-100,-100,0,0,100,0.00,40.00,0,-999,0,0.00
2013-5-1,77,66,58,-100,-100,-100,0,0,100,0.00,40.00,0,-999,0,0.00
2013-5-2,68,62,52,-100,-100,-100,0,0,100,0.00,40.00,0,-999,0,0.00
2013-5-3,58,48,42,-100,-100,-100,0,0,100,0.00,40.00,0,-999,0,0.00
2013-5-4,63,50,40,-100,-100,-100,0,0,100,0.00,40.00,0,-999,0,0.00
2013-5-5,58,51,45,-100,-100,-100,0,0,100,0.00,40.00,0,-999,0,0.00
2013-5-6,65,54,43,-100,-100,-100,0,0,100,0.00,40.00,0,-999,0,0.00
2013-5-7,79,62,52,-100,-100,-100,0,0,100,0.00,40.00,0,-999,0,0.00
2013-5-8,79,63,52,-100,-100,-100,0,0,100,0.00,40.00,0,-999,0,0.00
2013-5-9,71,66,61,-100,-100,-100,0,0,100,0.00,40.00,0,-999,0,0.00
2013-5-10,69,59,47,-100,-100,-100,0,0,100,0.00,40.00,0,-999,0,0.00
2013-5-11,79,66,62,-100,-100,-100,0,0,100,0.00,40.00,0,-999,0,0.00
2013-5-12,74,64,35,-100,-100,-100,0,0,100,0.00,40.00,0,-999,0,0.00
2013-5-13,76,52,40,-100,-100,-100,0,0,100,0.00,40.00,0,-999,0,0.00
2013-5-14,83,65,47,-100,-100,-100,0,0,100,0.00,40.00,0,-999,0,0.00
2013-5-15,69,65,52,-100,-100,-100,0,0,100,0.00,40.00,0,-999,0,0.00
2013-5-16,80,69,58,-100,-100,-100,0,0,100,0.00,40.00,0,-999,0,0.00
2013-5-17,82,72,67,-100,-100,-100,0,0,100,0.00,40.00,0,-999,0,0.00
2013-5-18,87,76,62,-100,-100,-100,0,0,100,0.00,40.00,0,-999,0,0.00
2013-5-19,85,75,69,-100,-100,-100,0,0,100,0.00,40.00,0,-999,0,0.00
2013-5-20,84,77,72,-100,-100,-100,0,0,100,0.00,40.00,0,-999,0,0.00
2013-5-21,86,77,70,-100,-100,-100,0,0,100,0.00,40.00,0,-999,0,0.00
2013-5-22,81,72,60,-100,-100,-100,0,0,100,0.00,40.00,0,-999,0,0.00
2013-5-23,86,74,65,-100,-100,-100,0,0,100,0.00,40.00,0,-999,0,0.00
2013-5-24,86,72,59,-100,-100,-100,0,0,100,0.00,40.00,0,-999,0,0.00
2013-5-25,83,72,59,-100,-100,-100,0,0,100,0.00,40.00,0,-999,0,0.00
2013-5-26,85,71,62,-100,-100,-100,0,0,100,0.00,40.00,0,-999,0,0.00
2013-5-27,86,70,61,-100,-100,-100,0,0,100,0.00,40.00,0,-999,0,0.00
2013-5-28,84,75,62,-100,-100,-100,0,0,100,0.00,40.00,0,-999,0,0.00
2013-5-29,85,75,68,-100,-100,-100,0,0,100,0.00,40.00,0,-999,0,0.00
2013-5-30,83,75,68,-100,-100,-100,0,0,100,0.00,40.00,0,-999,0,0.00
2013-5-31,83,76,73,-100,-100,-100,0,0,100,0.00,40.00,0,-999,0,0.00
2013-6-1,83,76,73,-100,-100,-100,0,0,100,0.00,40.00,0,-999,0,0.00
2013-6-2,77,73,68,-100,-100,-100,0,0,100,0.00,40.00,0,-999,0,0.00
2013-6-3,84,72,68,-100,-100,-100,0,0,100,0.00,40.00,0,-999,0,0.00
2013-6-4,87,77,68,-100,-100,-100,0,0,100,0.00,40.00,0,-999,0,0.00
2013-6-5,90,80,71,-100,-100,-100,0,0,100,0.00,40.00,0,-999,0,0.00
2013-6-6,77,72,67,-100,-100,-100,0,0,100,0.00,40.00,0,-999,0,0.00
2013-6-7,81,73,65,-100,-100,-100,0,0,100,0.00,40.00,0,-999,0,0.00
2013-6-8,80,68,64,-100,-100,-100,0,0,100,0.00,40.00,0,-999,0,0.00
2013-6-9,83,71,65,-100,-100,-100,0,0,100,0.00,40.00,0,-999,0,0.00
2013-6-10,88,75,65,-100,-100,-100,0,0,100,0.00,40.00,0,-999,0,0.00
2013-6-11,89,79,69,-100,-100,-100,0,0,100,0.00,40.00,0,-999,0,0.00
2013-6-12,91,80,70,-100,-100,-100,0,0,100,0.00,40.00,0,-999,0,0.00
2013-6-13,92,80,70,-100,-100,-100,0,0,100,0.00,40.00,0,-999,0,0.00
2013-6-14,91,80,73,-100,-100,-100,0,0,100,0.00,40.00,0,-999,0,0.00
2013-6-15,88,76,71,-100,-100,-100,0,0,100,0.00,40.00,0,-999,0,0.00
2013-6-16,91,79,71,-100,-100,-100,0,0,100,0.00,40.00,0,-999,0,0.00
2013-6-17,90,78,69,-100,-100,-100,0,0,100,0.00,40.00,0,-999,0,0.00
2013-6-18,87,80,69,-100,-100,-100,0,0,100,0.00,40.00,0,-999,0,0.00
2013-6-19,79,74,69,-100,-100,-100,0,0,100,0.00,40.00,0,-999,0,0.00
2013-6-20,86,78,70,-100,-100,-100,0,0,100,0.00,40.00,0,-999,0,0.00
2013-6-22,90,86,76,-100,-100,-100,0,0,100,0.00,40.00,0,-999,0,0.00
2013-6-23,85,78,71,-100,-100,-100,0,0,100,0.00,40.00,0,-999,0,0.00
2013-6-24,85,81,72,-100,-100,-100,0,0,100,0.00,40.00,0,-999,0,0.00
2013-6-25,90,80,70,-100,-100,-100,0,0,100,0.00,40.00,0,-999,0,0.00
2013-6-26,92,82,73,-100,-100,-100,0,0,100,0.00,40.00,0,-999,0,0.00
2013-6-27,91,79,69,-100,-100,-100,0,0,100,0.00,40.00,0,-999,0,0.00
2013-6-28,92,82,71,-100,-100,-100,0,0,100,0.00,40.00,0,-999,0,0.00
2013-6-29,96,81,73,-100,-100,-100,0,0,100,0.00,40.00,0,-999,0,0.00
2013-6-30,87,79,64,-100,-100,-100,0,0,100,0.00,40.00,0,-999,0,0.00
2013-7-1,83,75,65,-100,-100,-100,0,0,100,0.00,40.00,0,-999,0,0.00
2013-7-2,83,74,61,-100,-100,-100,0,0,100,0.00,40.00,0,-999,0,0.00
2013-7-3,86,76,64,-100,-100,-100,0,0,100,0.00,40.00,0,-999,0,0.00
2013-7-4,87,75,66,-100,-100,-100,0,0,100,0.00,40.00,0,-999,0,0.00
2013-7-5,87,74,66,-100,-100,-100,0,0,100,0.00,40.00,0,-999,0,0.00
2013-7-6,84,74,68,-100,-100,-100,0,0,100,0.00,40.00,0,-999,0,0.00
2013-7-7,80,75,73,-100,-100,-100,0,0,100,0.00,40.00,0,-999,0,0.00
2013-7-8,80,75,72,-100,-100,-100,0,0,100,0.00,40.00,0,-999,0,0.00
2013-7-9,90,80,71,-100,-100,-100,0,0,100,0.00,40.00,0,-999,0,0.00
2013-7-10,91,83,71,-100,-100,-100,0,0,100,0.00,40.00,0,-999,0,0.00
2013-7-11,85,76,69,-100,-100,-100,0,0,100,0.00,40.00,0,-999,0,0.00
2013-7-12,94,78,71,-100,-100,-100,0,0,100,0.00,40.00,0,-999,0,0.00
2013-7-13,88,77,68,-100,-100,-100,0,0,100,0.00,40.00,0,-999,0,0.00
2013-7-14,83,77,69,-100,-100,-100,0,0,100,0.00,40.00,0,-999,0,0.00
2013-7-15,80,75,72,-100,-100,-100,0,0,100,0.00,40.00,0,-999,0,0.00
2013-7-16,86,76,70,-100,-100,-100,0,0,100,0.00,40.00,0,-999,0,0.00
2013-7-17,88,79,72,-100,-100,-100,0,0,100,0.00,40.00,0,-999,0,0.00
2013-7-18,91,78,69,-100,-100,-100,0,0,100,0.00,40.00,0,-999,0,0.00
2013-7-19,83,73,69,-100,-100,-100,0,0,100,0.00,40.00,0,-999,0,0.00
2013-7-20,87,74,68,-100,-100,-100,0,0,100,0.00,40.00,0,-999,0,0.00
2013-7-21,82,76,69,-100,-100,-100,0,0,100,0.00,40.00,0,-999,0,0.00
2013-7-22,93,81,72,-100,-100,-100,0,0,100,0.00,40.00,0,-999,0,0.00
2013-7-23,94,87,77,-100,-100,-100,0,0,100,0.00,40.00,0,-999,0,0.00
2013-7-24,91,81,73,-100,-100,-100,0,0,100,0.00,40.00,0,-999,0,0.00
2013-7-25,90,82,75,-100,-100,-100,0,0,100,0.00,40.00,0,-999,0,0.00
2013-7-26,91,78,73,-100,-100,-100,0,0,100,0.00,40.00,0,-999,0,0.00
2013-7-27,83,81,79,-100,-100,-100,0,0,100,0.00,40.00,0,-999,0,0.00
2013-7-28,86,77,71,-100,-100,-100,0,0,100,0.00,40.00,0,-999,0,0.00
2013-7-29,98,82,75,-100,-100,-100,0,0,100,0.00,40.00,0,-999,0,0.00
2013-7-30,94,79,67,-100,-100,-100,0,0,100,0.00,40.00,0,-999,0,0.00
2013-7-31,91,80,73,-100,-100,-100,0,0,100,0.00,40.00,0,-999,0,0.00
2013-8-1,94,83,74,-100,-100,-100,0,0,100,0.00,40.00,0,-999,0,0.00
2013-8-2,94,84,76,-100,-100,-100,0,0,100,0.00,40.00,0,-999,0,0.00
2013-8-3,94,84,73,-100,-100,-100,0,0,100,0.00,40.00,0,-999,0,0.00
2013-8-4,94,84,72,-100,-100,-100,0,0,100,0.00,40.00,0,-999,0,0.00
2013-8-5,94,82,74,-100,-100,-100,0,0,100,0.00,40.00,0,-999,0,0.00
2013-8-6,98,83,73,-100,-100,-100,0,0,100,0.00,40.00,0,-999,0,0.00
2013-8-7,96,82,74,-100,-100,-100,0,0,100,0.00,40.00,0,-999,0,0.00
2013-8-8,95,81,73,-100,-100,-100,0,0,100,0.00,40.00,0,-999,0,0.00
2013-8-9,95,82,68,-100,-100,-100,0,0,100,0.00,40.00,0,-999,0,0.00
2013-8-10,76,74,73,-100,-100,-100,0,0,100,0.00,40.00,0,-999,0,0.00
2013-8-11,89,79,70,-100,-100,-100,0,0,100,0.00,40.00,0,-999,0,0.00
2013-8-12,87,76,70,-100,-100,-100,0,0,100,0.00,40.00,0,-999,0,0.00
2013-8-13,95,86,74,-100,-100,-100,0,0,100,0.00,40.00,0,-999,0,0.00
2013-8-14,85,76,73,-100,-100,-100,0,0,100,0.00,40.00,0,-999,0,0.00
2013-8-15,83,72,68,-100,-100,-100,0,0,100,0.00,40.00,0,-999,0,0.00
2013-8-16,87,81,69,-100,-100,-100,0,0,100,0.00,40.00,0,-999,0,0.00
2013-8-17,86,77,69,-100,-100,-100,0,0,100,0.00,40.00,0,-999,0,0.00
2013-8-18,88,78,68,-100,-100,-100,0,0,100,0.00,40.00,0,-999,0,0.00
2013-8-19,90,82,71,-100,-100,-100,0,0,100,0.00,40.00,0,-999,0,0.00
2013-8-20,74,72,67,-100,-100,-100,0,0,100,0.00,40.00,0,-999,0,0.00
2013-8-21,88,78,69,-100,-100,-100,0,0,100,0.00,40.00,0,-999,0,0.00
2013-8-22,88,83,76,-100,-100,-100,0,0,100,0.00,40.00,0,-999,0,0.00
2013-8-23,91,82,70,-100,-100,-100,0,0,100,0.00,40.00,0,-999,0,0.00
2013-8-24,89,81,69,-100,-100,-100,0,0,100,0.00,40.00,0,-999,0,0.00
2013-8-25,91,78,75,-100,-100,-100,0,0,100,0.00,40.00,0,-999,0,0.00
2013-8-26,79,74,71,-100,-100,-100,0,0,100,0.00,40.00,0,-999,0,0.00
2013-8-27,84,74,69,-100,-100,-100,0,0,100,0.00,40.00,0,-999,0,0.00
2013-8-28,90,86,80,-100,-100,-100,0,0,100,0.00,40.00,0,-999,0,0.00
2013-8-29,92,84,75,-100,-100,-100,0,0,100,0.00,40.00,0,-999,0,0.00
2013-8-30,91,77,67,-100,-100,-100,0,0,100,0.00,40.00,0,-999,0,0.00
2013-8-31,91,80,73,-100,-100,-100,0,0,100,0.00,40.00,0,-999,0,0.00
2013-9-1,93,81,68,-100,-100,-100,0,0,100,0.00,40.00,0,-999,0,0.00
2013-9-2,94,84,73,-100,-100,-100,0,0,100,0.00,40.00,0,-999,0,0.00
2013-9-3,97,81,73,-100,-100,-100,0,0,100,0.00,40.00,0,-999,0,0.00
2013-9-4,90,77,70,-100,-100,-100,0,0,100,0.00,40.00,0,-999,0,0.00
2013-9-5,86,75,70,-100,-100,-100,0,0,100,0.00,40.00,0,-999,0,0.00
2013-9-6,93,77,70,-100,-100,-100,0,0,100,0.00,40.00,0,-999,0,0.00
2013-9-7,89,76,69,-100,-100,-100,0,0,100,0.00,40.00,0,-999,0,0.00
2013-9-8,91,77,67,-100,-100,-100,0,0,100,0.00,40.00,0,-999,0,0.00
2013-9-9,90,76,68,-100,-100,-100,0,0,100,0.00,40.00,0,-999,0,0.00
2013-9-10,93,78,66,-100,-100,-100,0,0,100,0.00,40.00,0,-999,0,0.00
2013-9-11,91,77,65,-100,-100,-100,0,0,100,0.00,40.00,0,-999,0,0.00
2013-9-12,93,79,68,-100,-100,-100,0,0,100,0.00,40.00,0,-999,0,0.00
2013-9-13,94,80,65,-100,-100,-100,0,0,100,0.00,40.00,0,-999,0,0.00
2013-9-14,89,76,69,-100,-100,-100,0,0,100,0.00,40.00,0,-999,0,0.00
2013-9-15,92,76,67,-100,-100,-100,0,0,100,0.00,40.00,0,-999,0,0.00
2013-9-16,92,78,69,-100,-100,-100,0,0,100,0.00,40.00,0,-999,0,0.00
2013-9-17,92,85,65,-100,-100,-100,0,0,100,0.00,40.00,0,-999,0,0.00
2013-9-18,75,72,69,-100,-100,-100,0,0,100,0.00,40.00,0,-999,0,0.00
2013-9-19,87,78,70,-100,-100,-100,0,0,100,0.00,40.00,0,-999,0,0.00
2013-9-20,77,74,73,-100,-100,-100,0,0,100,0.00,40.00,0,-999,0,0.00
2013-9-21,72,70,68,-100,-100,-100,0,0,100,0.00,40.00,0,-999,0,0.00
2013-9-22,80,71,62,-100,-100,-100,0,0,100,0.00,40.00,0,-999,0,0.00
2013-9-23,86,79,60,-100,-100,-100,0,0,100,0.00,40.00,0,-999,0,0.00
2013-9-24,87,79,72,-100,-100,-100,0,0,100,0.00,40.00,0,-999,0,0.00
2013-9-25,87,72,64,-100,-100,-100,0,0,100,0.00,40.00,0,-999,0,0.00
2013-9-26,88,83,73,-100,-100,-100,0,0,100,0.00,40.00,0,-999,0,0.00
2013-9-27,87,78,66,-100,-100,-100,0,0,100,0.00,40.00,0,-999,0,0.00
2013-9-28,87,78,75,-100,-100,-100,0,0,100,0.00,40.00,0,-999,0,0.00
2013-9-29,76,73,69,-100,-100,-100,0,0,100,0.00,40.00,0,-999,0,0.00
2013-9-30,75,72,69,-100,-100,-100,0,0,100,0.00,40.00,0,-999,0,0.00
2013-10-1,84,84,84,-100,-100,-100,0,0,100,0.00,40.00,0,-999,0,0.00
2013-10-2,88,77,72,-100,-100,-100,0,0,100,0.00,40.00,0,-999,0,0.00
2013-10-3,91,79,72,-100,-100,-100,0,0,100,0.00,40.00,0,-999,0,0.00
2013-10-4,91,80,75,-100,-100,-100,0,0,100,0.00,40.00,0,-999,0,0.00
2013-10-5,87,76,71,-100,-100,-100,0,0,100,0.00,40.00,0,-999,0,0.00
2013-10-6,74,68,58,-100,-100,-100,0,0,100,0.00,40.00,0,-999,0,0.00
2013-10-7,78,64,48,-100,-100,-100,0,0,100,0.00,40.00,0,-999,0,0.00
2013-10-8,73,63,49,-100,-100,-100,0,0,100,0.00,40.00,0,-999,0,0.00
2013-10-9,77,65,47,-100,-100,-100,0,0,100,0.00,40.00,0,-999,0,0.00
2013-10-10,80,67,49,-100,-100,-100,0,0,100,0.00,40.00,0,-999,0,0.00
2013-10-11,84,72,58,-100,-100,-100,0,0,100,0.00,40.00,0,-999,0,0.00
2013-10-12,89,76,68,-100,-100,-100,0,0,100,0.00,40.00,0,-999,0,0.00
2013-10-13,79,72,67,-100,-100,-100,0,0,100,0.00,40.00,0,-999,0,0.00
2013-10-14,85,74,69,-100,-100,-100,0,0,100,0.00,40.00,0,-999,0,0.00
2013-10-15,90,78,71,-100,-100,-100,0,0,100,0.00,40.00,0,-999,0,0.00
2013-10-16,83,74,68,-100,-100,-100,0,0,100,0.00,40.00,0,-999,0,0.00
2013-10-17,74,67,65,-100,-100,-100,0,0,100,0.00,40.00,0,-999,0,0.00
2013-10-18,69,61,54,-100,-100,-100,0,0,100,0.00,40.00,0,-999,0,0.00
2013-10-19,63,58,51,-100,-100,-100,0,0,100,0.00,40.00,0,-999,0,0.00
2013-10-20,72,55,46,-100,-100,-100,0,0,100,0.00,40.00,0,-999,0,0.00
2013-10-21,73,61,51,-100,-100,-100,0,0,100,0.00,40.00,0,-999,0,0.00
2013-10-22,72,64,54,-100,-100,-100,0,0,100,0.00,40.00,0,-999,0,0.00
2013-10-23,75,62,48,-100,-100,-100,0,0,100,0.00,40.00,0,-999,0,0.00
2013-10-24,76,64,50,-100,-100,-100,0,0,100,0.00,40.00,0,-999,0,0.00
2013-10-25,65,59,53,-100,-100,-100,0,0,100,0.00,40.00,0,-999,0,0.00
2013-10-26,76,54,41,-100,-100,-100,0,0,100,0.00,40.00,0,-999,0,0.00
2013-10-27,71,61,50,-100,-100,-100,0,0,100,0.00,40.00,0,-999,0,0.00
2013-10-28,77,65,58,-100,-100,-100,0,0,100,0.00,40.00,0,-999,0,0.00
2013-10-29,83,69,62,-100,-100,-100,0,0,100,0.00,40.00,0,-999,0,0.00
2013-10-30,76,71,67,-100,-100,-100,0,0,100,0.00,40.00,0,-999,0,0.00
2013-10-31,83,72,65,-100,-100,-100,0,0,100,0.00,40.00,0,-999,0,0.00
2013-11-1,77,63,58,-100,-100,-100,0,0,100,0.00,40.00,0,-999,0,0.00
2013-11-2,69,60,56,-100,-100,-100,0,0,100,0.00,40.00,0,-999,0,0.00
2013-11-3,62,52,46,-100,-100,-100,0,0,100,0.00,40.00,0,-999,0,0.00
2013-11-4,73,60,46,-100,-100,-100,0,0,100,0.00,40.00,0,-999,0,0.00
2013-11-5,76,69,61,-100,-100,-100,0,0,100,0.00,40.00,0,-999,0,0.00
2013-11-6,80,66,55,-100,-100,-100,0,0,100,0.00,40.00,0,-999,0,0.00
2013-11-7,62,53,49,-100,-100,-100,0,0,100,0.00,40.00,0,-999,0,0.00
2013-11-8,62,54,49,-100,-100,-100,0,0,100,0.00,40.00,0,-999,0,0.00
2013-11-9,66,54,47,-100,-100,-100,0,0,100,0.00,40.00,0,-999,0,0.00
2013-11-10,72,58,49,-100,-100,-100,0,0,100,0.00,40.00,0,-999,0,0.00
2013-11-11,70,57,48,-100,-100,-100,0,0,100,0.00,40.00,0,-999,0,0.00
2013-11-12,69,58,51,-100,-100,-100,0,0,100,0.00,40.00,0,-999,0,0.00
2013-11-13,52,41,29,-100,-100,-100,0,0,100,0.00,40.00,0,-999,0,0.00
2013-11-14,56,47,26,-100,-100,-100,0,0,100,0.00,40.00,0,-999,0,0.00
2013-11-15,76,58,47,-100,-100,-100,0,0,100,0.00,40.00,0,-999,0,0.00
2013-11-16,75,66,58,-100,-100,-100,0,0,100,0.00,40.00,0,-999,0,0.00
2013-11-17,88,76,71,-100,-100,-100,0,0,100,0.00,40.00,0,-999,0,0.00
2013-11-18,73,69,61,-100,-100,-100,0,0,100,0.00,40.00,0,-999,0,0.00
2013-11-19,65,58,48,-100,-100,-100,0,0,100,0.00,40.00,0,-999,0,0.00
2013-11-20,69,56,43,-100,-100,-100,0,0,100,0.00,40.00,0,-999,0,0.00
2013-11-21,74,67,58,-100,-100,-100,0,0,100,0.00,40.00,0,-999,0,0.00
2013-11-22,70,65,57,-100,-100,-100,0,0,100,0.00,40.00,0,-999,0,0.00
2013-11-23,58,51,43,-100,-100,-100,0,0,100,0.00,40.00,0,-999,0,0.00
2013-11-24,49,43,40,-100,-100,-100,0,0,100,0.00,40.00,0,-999,0,0.00
2013-11-25,47,47,47,-100,-100,-100,0,0,100,0.00,40.00,0,-999,0,0.00
2013-11-26,41,39,38,-100,-100,-100,0,0,100,0.00,40.00,0,-999,0,0.00
2013-11-27,45,37,32,-100,-100,-100,0,0,100,0.00,40.00,0,-999,0,0.00
2013-11-28,47,42,38,-100,-100,-100,0,0,100,0.00,40.00,0,-999,0,0.00
2013-11-29,57,45,37,-100,-100,-100,0,0,100,0.00,40.00,0,-999,0,0.00
2013-11-30,64,48,27,-100,-100,-100,0,0,100,0.00,40.00,0,-999,0,0.00
2013-12-1,65,52,38,-100,-100,-100,0,0,100,0.00,40.00,0,-999,0,0.00
2013-12-2,75,63,57,-100,-100,-100,0,0,100,0.00,40.00,0,-999,0,0.00
2013-12-3,74,68,63,-100,-100,-100,0,0,100,0.00,40.00,0,-999,0,0.00
2013-12-4,79,72,69,-100,-100,-100,0,0,100,0.00,40.00,0,-999,0,0.00
2013-12-5,86,68,52,-100,-100,-100,0,0,100,0.00,40.00,0,-999,0,0.00
2013-12-6,52,45,38,-100,-100,-100,0,0,100,0.00,40.00,0,-999,0,0.00
2013-12-7,37,35,32,-100,-100,-100,0,0,100,0.00,40.00,0,-999,0,0.00
2013-12-8,44,40,32,-100,-100,-100,0,0,100,0.00,40.00,0,-999,0,0.00
2013-12-9,44,42,38,-100,-100,-100,0,0,100,0.00,40.00,0,-999,0,0.00
2013-12-10,47,38,33,-100,-100,-100,0,0,100,0.00,40.00,0,-999,0,0.00
2013-12-11,48,41,32,-100,-100,-100,0,0,100,0.00,40.00,0,-999,0,0.00
2013-12-12,50,40,32,-100,-100,-100,0,0,100,0.00,40.00,0,-999,0,0.00
2013-12-13,57,47,34,-100,-100,-100,0,0,100,0.00,40.00,0,-999,0,0.00
2013-12-14,64,57,46,-100,-100,-100,0,0,100,0.00,40.00,0,-999,0,0.00
2013-12-15,51,41,33,-100,-100,-100,0,0,100,0.00,40.00,0,-999,0,0.00
2013-12-16,58,43,36,-100,-100,-100,0,0,100,0.00,40.00,0,-999,0,0.00
2013-12-17,65,48,37,-100,-100,-100,0,0,100,0.00,40.00,0,-999,0,0.00
2013-12-18,64,46,39,-100,-100,-100,0,0,100,0.00,40.00,0,-999,0,0.00
2013-12-19,71,62,42,-100,-100,-100,0,0,100,0.00,40.00,0,-999,0,0.00
2013-12-20,73,70,66,-100,-100,-100,0,0,100,0.00,40.00,0,-999,0,0.00
2013-12-21,75,67,58,-100,-100,-100,0,0,100,0.00,40.00,0,-999,0,0.00
2013-12-22,58,53,40,-100,-100,-100,0,0,100,0.00,40.00,0,-999,0,0.00
2013-12-23,51,42,36,-100,-100,-100,0,0,100,0.00,40.00,0,-999,0,0.00
2013-12-24,55,47,40,-100,-100,-100,0,0,100,0.00,40.00,0,-999,0,0.00
2013-12-25,54,46,40,-100,-100,-100,0,0,100,0.00,40.00,0,-999,0,0.00
2013-12-26,59,47,41,-100,-100,-100,0,0,100,0.00,40.00,0,-999,0,0.00
2013-12-27,51,48,44,-100,-100,-100,0,0,100,0.00,40.00,0,-999,0,0.00
2013-12-28,50,45,41,-100,-100,-100,0,0,100,0.00,40.00,0,-999,0,0.00
2013-12-29,62,47,33,-100,-100,-100,0,0,100,0.00,40.00,0,-999,0,0.00
2013-12-30,46,44,40,-100,-100,-100,0,0,100,0.00,40.00,0,-999,0,0.00
2013-12-31,49,43,39,-100,-100,-100,0,0,100,0.00,40.00,0,-999,0,0.00
2014-1-1,60,52,43,-100,-100,-100,0,0,100,0.00,40.00,0,-999,0,0.00
2014-1-2,58,48,40,-100,-100,-100,0,0,100,0.00,40.00,0,-999,0,0.00